Weather History for Kankakee, IL

Change the Weather History Date:

Wednesday, December 5, 2012

  Actual Average Record
Temperature  
Mean Temperature 36 °F -  
Max Temperature 42 °F 40 °F 66 °F (2001)
Min Temperature 30 °F 24 °F -3 °F (1991)
Degree Days  
Heating Degree Days 29    
Moisture  
Dew Point 30 °F    
Average Humidity 76    
Maximum Humidity 92    
Minimum Humidity 62    
Precipitation  
Precipitation 0.00 in - - ()
Sea Level Pressure  
Sea Level Pressure 30.34 in    
Wind  
Wind Speed 6 mph (ENE)    
Max Wind Speed 9 mph    
Max Gust Speed -    
Visibility 10 miles    
Events      
Averages and records for this station are not official NWS values.
T = Trace of Precipitation, MM = Missing Value Source: NWS Daily Summary

Daily Weather History Graph

Daily Weather History Graph

Search for Another Location

Airport:

Trip Planner

Search our weather history database for the weather conditions in past years. The results will help you decide how hot, cold, wet, or windy it might be!

Date:

Astronomy

Dec. 05, 2012 Rise Set
Actual Time 7:01 AM CST 4:22 PM CST
Civil Twilight 6:30 AM CST 4:53 PM CST
Nautical Twilight 5:56 AM CST 5:28 PM CST
Astronomical Twilight 5:23 AM CST 6:01 PM CST
Moon 11:14 PM CST (12/5) 11:22 AM CST (12/5)
Length of Visible Light 10h 22m
Length of Day
9h 21m
Waning Gibbous, 59% of the Moon is Illuminated
Dec 5
Waning Gibbous
Dec 6
Last Quarter
Dec 13
New
Dec 19
First Quarter
Dec 28
Full

Hourly Weather History & Observations

Time (CST) Temp. Windchill Dew Point Humidity Pressure Visibility Wind Dir Wind Speed Gust Speed Precip Events Conditions
12:15 AM 41.0 °F 35.2 °F 32.0 °F 70% 30.28 in 10.0 mi NW 9.2 mph - N/A   Clear
12:35 AM 40.3 °F 35.5 °F 32.0 °F 72% 30.28 in 10.0 mi NW 6.9 mph - N/A   Clear
12:55 AM 39.9 °F 36.7 °F 32.0 °F 73% 30.30 in 10.0 mi NW 4.6 mph - N/A   Clear
1:15 AM 38.8 °F 35.4 °F 32.0 °F 76% 30.30 in 10.0 mi NW 4.6 mph - N/A   Clear
1:35 AM 39.2 °F 35.9 °F 32.0 °F 75% 30.32 in 10.0 mi NW 4.6 mph - N/A   Clear
1:55 AM 38.3 °F 34.8 °F 31.6 °F 77% 30.32 in 10.0 mi NW 4.6 mph - N/A   Clear
2:15 AM 37.9 °F 34.4 °F 31.1 °F 76% 30.33 in 10.0 mi NW 4.6 mph - N/A   Clear
2:35 AM 37.2 °F 33.6 °F 30.6 °F 77% 30.34 in 10.0 mi NNW 4.6 mph - N/A   Clear
2:55 AM 36.5 °F 31.8 °F 29.8 °F 77% 30.34 in 10.0 mi NNW 5.8 mph - N/A   Clear
3:15 AM 36.0 °F 30.3 °F 28.8 °F 75% 30.34 in 10.0 mi North 6.9 mph - N/A   Clear
3:35 AM 35.6 °F 30.7 °F 27.9 °F 73% 30.34 in 10.0 mi North 5.8 mph - N/A   Clear
3:55 AM 34.9 °F 30.8 °F 28.2 °F 77% 30.34 in 10.0 mi NNW 4.6 mph - N/A   Clear
4:15 AM 34.7 °F 29.6 °F 27.3 °F 74% 30.35 in 10.0 mi North 5.8 mph - N/A   Clear
4:35 AM 34.0 °F 26.6 °F 27.0 °F 75% 30.36 in 10.0 mi North 9.2 mph - N/A   Clear
4:55 AM 33.4 °F 26.6 °F 24.6 °F 70% 30.36 in 10.0 mi North 8.1 mph - N/A   Clear
5:15 AM 32.9 °F 26.7 °F 24.6 °F 72% 30.36 in 10.0 mi North 6.9 mph - N/A   Clear
5:35 AM 32.0 °F 25.6 °F 24.4 °F 74% 30.37 in 10.0 mi North 6.9 mph - N/A   Clear
5:55 AM 32.0 °F 24.8 °F 24.1 °F 73% 30.37 in 10.0 mi North 8.1 mph - N/A   Clear
6:15 AM 31.5 °F 24.2 °F 23.5 °F 73% 30.38 in 10.0 mi North 8.1 mph - N/A   Clear
6:35 AM 31.1 °F 24.5 °F 23.0 °F 72% 30.39 in 10.0 mi North 6.9 mph - N/A   Clear
6:55 AM 30.9 °F 25.2 °F 22.8 °F 72% 30.39 in 10.0 mi North 5.8 mph - N/A   Clear
8:35 AM 32.9 °F 27.5 °F 25.3 °F 74% 30.42 in 10.0 mi North 5.8 mph - N/A   Clear
8:55 AM 34.0 °F 28.8 °F 26.2 °F 73% 30.41 in 10.0 mi North 5.8 mph - N/A   Clear
9:15 AM 34.9 °F 29.0 °F 27.0 °F 73% 30.42 in 10.0 mi NNE 6.9 mph - N/A   Clear
9:35 AM 35.6 °F 29.9 °F 27.5 °F 72% 30.42 in 10.0 mi NE 6.9 mph - N/A   Clear
9:55 AM 36.7 °F 30.5 °F 29.1 °F 74% 30.42 in 10.0 mi NE 8.1 mph - N/A   Clear
10:15 AM 37.4 °F 32.1 °F 29.3 °F 73% 30.42 in 10.0 mi NE 6.9 mph - N/A   Clear
10:35 AM 37.9 °F 32.7 °F 30.0 °F 73% 30.42 in 10.0 mi ENE 6.9 mph - N/A   Clear
10:55 AM 39.2 °F 35.9 °F 30.6 °F 71% 30.41 in 10.0 mi ENE 4.6 mph - N/A   Clear
11:15 AM 39.4 °F 37.2 °F 30.4 °F 70% 30.41 in 10.0 mi NE 3.5 mph - N/A   Clear
11:35 AM 39.4 °F 36.1 °F 31.1 °F 72% 30.40 in 10.0 mi East 4.6 mph - N/A   Clear
11:55 AM 40.3 °F 38.2 °F 31.3 °F 70% 30.39 in 10.0 mi East 3.5 mph - N/A   Scattered Clouds
12:15 PM 41.0 °F 39.0 °F 30.7 °F 67% 30.38 in 10.0 mi NE 3.5 mph - N/A   Scattered Clouds
12:35 PM 41.7 °F 39.8 °F 30.7 °F 65% 30.37 in 10.0 mi ENE 3.5 mph - N/A   Scattered Clouds
12:55 PM 41.5 °F 39.6 °F 30.9 °F 66% 30.37 in 10.0 mi SE 3.5 mph - N/A   Clear
1:15 PM 42.6 °F 39.9 °F 31.3 °F 64% 30.37 in 10.0 mi SSE 4.6 mph - N/A   Scattered Clouds
1:35 PM 41.9 °F - 30.2 °F 63% 30.36 in 10.0 mi Calm Calm - N/A   Scattered Clouds
1:55 PM 42.3 °F 39.4 °F 30.2 °F 62% 30.35 in 10.0 mi East 4.6 mph - N/A   Clear
2:15 PM 42.8 °F 40.1 °F 31.3 °F 64% 30.35 in 10.0 mi SSE 4.6 mph - N/A   Mostly Cloudy
2:35 PM 42.1 °F - 30.4 °F 63% 30.34 in 10.0 mi Calm Calm - N/A   Scattered Clouds
2:55 PM 41.5 °F - 30.6 °F 65% 30.34 in 10.0 mi Calm Calm - N/A   Scattered Clouds
3:15 PM 41.5 °F - 30.9 °F 66% 30.34 in 10.0 mi Calm Calm - N/A   Clear
3:35 PM 40.6 °F 37.5 °F 30.9 °F 68% 30.34 in 10.0 mi SE 4.6 mph - N/A   Clear
3:55 PM 40.1 °F 38.0 °F 31.1 °F 70% 30.33 in 10.0 mi ESE 3.5 mph - N/A   Clear
4:15 PM 39.2 °F 37.0 °F 31.6 °F 74% 30.33 in 10.0 mi ESE 3.5 mph - N/A   Clear
4:35 PM 38.5 °F - 32.0 °F 78% 30.34 in 10.0 mi Calm Calm - N/A   Clear
4:55 PM 37.0 °F - 32.0 °F 82% 30.34 in 10.0 mi Calm Calm - N/A   Clear
5:15 PM 36.9 °F 33.1 °F 32.0 °F 83% 30.34 in 10.0 mi ESE 4.6 mph - N/A   Clear
5:35 PM 36.3 °F 32.5 °F 31.8 °F 84% 30.33 in 10.0 mi ESE 4.6 mph - N/A   Clear
5:55 PM 35.6 °F 30.7 °F 31.5 °F 85% 30.32 in 10.0 mi ESE 5.8 mph - N/A   Clear
6:15 PM 35.4 °F 30.5 °F 31.3 °F 85% 30.32 in 10.0 mi East 5.8 mph - N/A   Clear
6:35 PM 33.8 °F 27.7 °F 30.2 °F 87% 30.32 in 10.0 mi East 6.9 mph - N/A   Clear
6:55 PM 34.7 °F 28.1 °F 30.2 °F 84% 30.31 in 10.0 mi East 8.1 mph - N/A   Clear
7:15 PM 34.9 °F 29.9 °F 30.0 °F 82% 30.31 in 10.0 mi ESE 5.8 mph - N/A   Clear
7:35 PM 34.9 °F 29.0 °F 30.0 °F 82% 30.30 in 10.0 mi ESE 6.9 mph - N/A   Clear
7:55 PM 34.9 °F 29.0 °F 30.2 °F 83% 30.30 in 10.0 mi ESE 6.9 mph - N/A   Clear
8:15 PM 33.8 °F 29.6 °F 30.2 °F 87% 30.29 in 10.0 mi ESE 4.6 mph - N/A   Clear
8:35 PM 33.8 °F 27.7 °F 30.2 °F 87% 30.29 in 10.0 mi ESE 6.9 mph - N/A   Clear
8:55 PM 33.4 °F 27.3 °F 30.2 °F 88% 30.29 in 10.0 mi ESE 6.9 mph - N/A   Clear
9:15 PM 33.4 °F 27.3 °F 30.0 °F 87% 30.28 in 10.0 mi ESE 6.9 mph - N/A   Clear
9:35 PM 33.1 °F 27.7 °F 29.8 °F 88% 30.27 in 10.0 mi ESE 5.8 mph - N/A   Clear
9:55 PM 32.9 °F 27.5 °F 30.0 °F 89% 30.26 in 10.0 mi ESE 5.8 mph - N/A   Clear
10:15 PM 32.5 °F 28.1 °F 30.2 °F 91% 30.25 in 10.0 mi ESE 4.6 mph - N/A   Clear
10:35 PM 32.2 °F 25.8 °F 30.2 °F 92% 30.24 in 10.0 mi ESE 6.9 mph - N/A   Clear
10:55 PM 32.4 °F 26.9 °F 30.4 °F 92% 30.24 in 10.0 mi ESE 5.8 mph - N/A   Clear
11:15 PM 32.5 °F 24.8 °F 30.6 °F 92% 30.22 in 10.0 mi ESE 9.2 mph - N/A   Clear
11:35 PM 32.9 °F 25.3 °F 30.2 °F 90% 30.22 in 10.0 mi ESE 9.2 mph - N/A   Clear
11:55 PM 33.1 °F 25.5 °F 30.2 °F 89% 30.22 in 10.0 mi ESE 9.2 mph - N/A   Clear